This is the latest recevied weather packets stored in our database for station/object KM4KMS. If no packets are shown the sender has not sent any weather packets the latest 1 day(s).
| Time | Temp. | Humidity | Pressure | Rain* | Wind** | Luminosity | Snow |
|---|---|---|---|---|---|---|---|
| 1778013739 | 17.22° C | 89% | 1007.5 hPa | 0 mm | 0.45 m/s, 145° | 59 W/m² | - |
| 1778013435 | 17.22° C | 89% | 1007.6 hPa | 0 mm | 0.45 m/s, 113° | 68 W/m² | - |
| 1778013132 | 17.22° C | 89% | 1007.6 hPa | 0 mm | 0.45 m/s, 183° | 45 W/m² | - |
| 1778012828 | 17.22° C | 89% | 1007.7 hPa | 0 mm | 0.45 m/s, 207° | 46 W/m² | - |
| 1778012524 | 17.22° C | 87% | 1007.8 hPa | 0 mm | 0.45 m/s, 185° | 66 W/m² | - |
| 1778012221 | 17.22° C | 88% | 1007.8 hPa | 0 mm | 0.89 m/s, 216° | 60 W/m² | - |
| 1778011927 | 17.22° C | 89% | 1007.9 hPa | 1.27 mm | 1.34 m/s, 242° | 51 W/m² | - |
| 1778011617 | 17.22° C | 89% | 1007.9 hPa | 4.32 mm | 0.89 m/s, 213° | 43 W/m² | - |
| 1778011313 | 17.78° C | 87% | 1008.1 hPa | 4.83 mm | 2.24 m/s, 243° | 47 W/m² | - |
| 1778011009 | 17.78° C | 85% | 1008.3 hPa | 1.78 mm | 1.79 m/s, 243° | 52 W/m² | - |
| 1778010707 | 17.78° C | 84% | 1008.3 hPa | 1.27 mm | 1.79 m/s, 245° | 34 W/m² | - |
| 1778010404 | 18.33° C | 81% | 1008.2 hPa | 0 mm | 2.68 m/s, 270° | 70 W/m² | - |
| 1778010100 | 18.33° C | 79% | 1008.4 hPa | 0 mm | 4.47 m/s, 223° | 52 W/m² | - |
| 1778009797 | 18.89° C | 79% | 1008.3 hPa | 0 mm | 4.02 m/s, 236° | 67 W/m² | - |
| 1778009493 | 18.89° C | 80% | 1008.2 hPa | 0 mm | 3.58 m/s, 257° | 76 W/m² | - |
| 1778009192 | 19.44° C | 77% | 1008.3 hPa | 0 mm | 3.58 m/s, 232° | 67 W/m² | - |
| 1778008889 | 19.44° C | 75% | 1008 hPa | 0 mm | 4.02 m/s, 232° | 65 W/m² | - |
| 1778008588 | 20° C | 74% | 1008 hPa | 0 mm | 1.79 m/s, 246° | 65 W/m² | - |
| 1778008285 | 20° C | 72% | 1007.9 hPa | 0 mm | 4.02 m/s, 184° | 78 W/m² | - |
| 1778007981 | 20.56° C | 70% | 1008 hPa | 0 mm | 4.02 m/s, 225° | 100 W/m² | - |
| 1778007676 | 20.56° C | 70% | 1008.3 hPa | 0 mm | 3.13 m/s, 194° | 111 W/m² | - |
| 1778007373 | 20.56° C | 70% | 1008.2 hPa | 0 mm | 3.58 m/s, 221° | 115 W/m² | - |
| 1778007069 | 20.56° C | 71% | 1008.3 hPa | 0 mm | 3.58 m/s, 224° | 129 W/m² | - |
| 1778006766 | 20.56° C | 70% | 1008.4 hPa | 0 mm | 2.68 m/s, 246° | 95 W/m² | - |
| 1778006463 | 20.56° C | 69% | 1008.6 hPa | 0 mm | 5.81 m/s, 241° | 129 W/m² | - |
* Rain latest hour (hover to see other rain measurements)
** Current wind speed in m/s (hover to see current wind gust speed)